Location: Waco, TX
(31.5480°N, 97.1670°W)
Time: 00:31:20
(UTC-05:00)

ISS - All Passes

Search period start: 23 May 2018 00:00
Search period end: 02 June 2018 00:00
Orbit: 402 x 407 km, 51.6° (Epoch: 24 May)

Date Brightness Start Highest point End Pass type
(mag) Time Alt. Az. Time Alt. Az. Time Alt. Az.
23 May - 04:38:03 10° NW 04:41:16 54° NE 04:44:27 10° ESE visible
23 May - 19:38:47 10° S 19:41:10 19° SE 19:43:34 10° E daylight
23 May - 21:14:39 10° W 21:17:30 27° NW 21:20:20 10° NNE visible
24 May - 03:46:12 10° NNW 03:49:01 26° NE 03:51:49 10° E visible
24 May - 05:22:55 10° W 05:25:21 20° SW 05:27:48 10° S visible
24 May - 20:22:01 10° WSW 20:25:14 57° NW 20:28:28 10° NE daylight
25 May - 02:54:44 10° N 02:56:39 15° NE 02:58:35 10° ENE night (unlit)
25 May - 04:30:10 10° WNW 04:33:17 44° SW 04:36:25 10° SSE night (unlit)
25 May - 19:29:51 10° SSW 19:33:04 59° SE 19:36:18 10° NE daylight
25 May - 21:08:18 10° WNW 21:09:48 12° NNW 21:11:18 10° N visible
26 May - 03:37:54 10° NW 03:41:09 75° NE 03:44:23 10° SE night (unlit)
26 May - 18:38:13 10° S 18:40:57 25° SE 18:43:42 10° ENE daylight
26 May - 20:14:47 10° W 20:17:23 22° NW 20:20:00 10° NNE daylight
27 May - 02:45:54 10° NNW 02:48:53 33° NE 02:51:52 10° ESE night (unlit)
27 May - 04:23:11 10° W 04:25:08 15° SW 04:27:04 10° SSW night (unlit)
27 May - 17:47:43 10° SSE 17:48:55 12° SE 17:50:07 10° ESE daylight
27 May - 19:21:56 10° WSW 19:25:03 42° NW 19:28:12 10° NNE daylight
28 May - 01:54:13 10° N 01:56:32 18° NE 01:58:50 10° E night (unlit)
28 May - 03:30:06 10° WNW 03:33:03 32° SW 03:36:00 10° SSE night (unlit)
28 May - 18:29:33 10° SW 18:32:49 82° SE 18:36:05 10° NE daylight
28 May - 20:09:04 10° NW 20:09:40 10° NNW 20:10:15 10° NNW daylight
29 May - 01:03:25 10° NNE 01:04:03 10° NNE 01:04:40 10° NE visible
29 May - 02:37:38 10° NW 02:40:53 80° SW 02:44:07 10° SE night (unlit)
29 May - 17:37:39 10° SSW 17:40:38 33° SE 17:43:38 10° ENE daylight
29 May - 19:14:52 10° W 19:17:10 18° NW 19:19:29 10° N daylight
30 May - 01:45:30 10° NNW 01:48:38 43° NE 01:51:45 10° ESE night (unlit)
30 May - 03:23:41 10° WSW 03:24:46 11° SW 03:25:51 10° SW night (unlit)
30 May - 16:46:32 10° SSE 16:48:32 15° SE 16:50:32 10° E daylight
30 May - 18:21:47 10° WSW 18:24:46 32° NW 18:27:46 10° NNE daylight
31 May - 00:53:39 10° NNW 00:56:16 22° NE 00:58:52 10° E visible
31 May - 02:29:58 10° WNW 02:32:41 24° SW 02:35:23 10° S night (unlit)
31 May - 17:29:12 10° SW 17:32:27 74° NW 17:35:44 10° NE daylight
01 Jun - 00:02:17 10° N 00:03:47 13° NNE 00:05:17 10° ENE visible
01 Jun - 01:37:18 10° NW 01:40:31 58° SW 01:43:42 10° SSE night (unlit)
01 Jun - 16:37:05 10° SSW 16:40:13 45° SE 16:43:22 10° ENE daylight
01 Jun - 18:14:56 10° WNW 18:16:51 15° NW 18:18:47 10° N daylight
